owner,sensor,date,latitude,longitude,vertical_datum,wind_speed,wind_to_direction,wind_speed_of_gust,qcFlag 
DISL,ioos:station:DISL:BSCA:1,2014-06-01T00:00:00Z,30.3288,-87.8293,0.0,1.58,122.2,-9999.0,'1111122,1111122,1111122' 
DISL,ioos:station:DISL:BSCA:1,2014-06-01T00:30:00Z,30.3288,-87.8293,0.0,2.45,57.66,-9999.0,'1111122,1111122,1111122' 
DISL,ioos:station:DISL:BSCA:1,2014-06-01T01:00:00Z,30.3288,-87.8293,0.0,3.83,47.15,-9999.0,'1111122,1111122,1111122' 
DISL,ioos:station:DISL:BSCA:1,2014-06-01T01:30:00Z,30.3288,-87.8293,0.0,3.34,58.48,-9999.0,'1111122,1111122,1111122' 
DISL,ioos:station:DISL:BSCA:1,2014-06-01T02:00:00Z,30.3288,-87.8293,0.0,3.19,74.73,-9999.0,'1111122,1111122,1111122' 
DISL,ioos:station:DISL:BSCA:1,2014-06-01T02:30:00Z,30.3288,-87.8293,0.0,4.32,72.47,-9999.0,'1111122,1111122,1111122' 
DISL,ioos:station:DISL:BSCA:1,2014-06-01T03:00:00Z,30.3288,-87.8293,0.0,3.79,71.7,-9999.0,'1111122,1111122,1111122' 
DISL,ioos:station:DISL:BSCA:1,2014-06-01T03:30:00Z,30.3288,-87.8293,0.0,4.16,73.65,-9999.0,'1111122,1111122,1111122' 
DISL,ioos:station:DISL:BSCA:1,2014-06-01T04:00:00Z,30.3288,-87.8293,0.0,4.03,73.65,-9999.0,'1111122,1111122,1111122' 
DISL,ioos:station:DISL:BSCA:1,2014-06-01T04:30:00Z,30.3288,-87.8293,0.0,4.21,98.3,-9999.0,'1111122,1111122,1111122' 
DISL,ioos:station:DISL:BSCA:1,2014-06-01T05:00:00Z,30.3288,-87.8293,0.0,3.41,97.6,-9999.0,'1111122,1111122,1111122' 
DISL,ioos:station:DISL:BSCA:1,2014-06-01T05:30:00Z,30.3288,-87.8293,0.0,3.0,103.3,-9999.0,'1111122,1111122,1111122' 
DISL,ioos:station:DISL:BSCA:1,2014-06-01T06:00:00Z,30.3288,-87.8293,0.0,2.75,70.4,-9999.0,'1111122,1111122,1111122' 
DISL,ioos:station:DISL:BSCA:1,2014-06-01T06:30:00Z,30.3288,-87.8293,0.0,3.03,87.4,-9999.0,'1111122,1111122,1111122' 
DISL,ioos:station:DISL:BSCA:1,2014-06-01T07:00:00Z,30.3288,-87.8293,0.0,3.0,87.9,-9999.0,'1111122,1111122,1111122' 
DISL,ioos:station:DISL:BSCA:1,2014-06-01T07:30:00Z,30.3288,-87.8293,0.0,3.15,78.07,-9999.0,'1111122,1111122,1111122' 
DISL,ioos:station:DISL:BSCA:1,2014-06-01T08:00:00Z,30.3288,-87.8293,0.0,2.65,91.8,-9999.0,'1111122,1111122,1111122' 
DISL,ioos:station:DISL:BSCA:1,2014-06-01T08:30:00Z,30.3288,-87.8293,0.0,3.35,83.7,-9999.0,'1111122,1111122,1111122' 
DISL,ioos:station:DISL:BSCA:1,2014-06-01T09:00:00Z,30.3288,-87.8293,0.0,4.08,81.1,-9999.0,'1111122,1111122,1111122' 
DISL,ioos:station:DISL:BSCA:1,2014-06-01T09:30:00Z,30.3288,-87.8293,0.0,4.02,81.2,-9999.0,'1111122,1111122,1111122' 
DISL,ioos:station:DISL:BSCA:1,2014-06-01T10:00:00Z,30.3288,-87.8293,0.0,4.66,81.9,-9999.0,'1111122,1111122,1111122' 
DISL,ioos:station:DISL:BSCA:1,2014-06-01T10:30:00Z,30.3288,-87.8293,0.0,4.84,92.7,-9999.0,'1111122,1111122,1111122' 
DISL,ioos:station:DISL:BSCA:1,2014-06-01T11:00:00Z,30.3288,-87.8293,0.0,4.23,92.0,-9999.0,'1111122,1111122,1111122' 
DISL,ioos:station:DISL:BSCA:1,2014-06-01T11:30:00Z,30.3288,-87.8293,0.0,4.47,82.4,-9999.0,'1111122,1111122,1111122' 
DISL,ioos:station:DISL:BSCA:1,2014-06-01T12:00:00Z,30.3288,-87.8293,0.0,4.79,78.01,-9999.0,'1111122,1111122,1111122' 
DISL,ioos:station:DISL:BSCA:1,2014-06-01T12:30:00Z,30.3288,-87.8293,0.0,4.81,85.1,-9999.0,'1111122,1111122,1111122' 
DISL,ioos:station:DISL:BSCA:1,2014-06-01T13:00:00Z,30.3288,-87.8293,0.0,4.84,89.9,-9999.0,'1111122,1111122,1111122' 
DISL,ioos:station:DISL:BSCA:1,2014-06-01T13:30:00Z,30.3288,-87.8293,0.0,4.52,88.3,-9999.0,'1111122,1111122,1111122' 
DISL,ioos:station:DISL:BSCA:1,2014-06-01T14:00:00Z,30.3288,-87.8293,0.0,4.39,98.8,-9999.0,'1111122,1111122,1111122' 
DISL,ioos:station:DISL:BSCA:1,2014-06-01T14:30:00Z,30.3288,-87.8293,0.0,5.44,111.8,-9999.0,'1111122,1111122,1111122' 
DISL,ioos:station:DISL:BSCA:1,2014-06-01T15:00:00Z,30.3288,-87.8293,0.0,6.07,121.2,-9999.0,'1111122,1111122,1111122' 
DISL,ioos:station:DISL:BSCA:1,2014-06-01T15:30:00Z,30.3288,-87.8293,0.0,6.83,126.0,-9999.0,'1111122,1111122,1111122' 
DISL,ioos:station:DISL:BSCA:1,2014-06-01T16:00:00Z,30.3288,-87.8293,0.0,7.03,131.9,-9999.0,'1111122,1111122,1111122' 
DISL,ioos:station:DISL:BSCA:1,2014-06-01T16:30:00Z,30.3288,-87.8293,0.0,6.28,139.7,-9999.0,'1111122,1111122,1111122' 
DISL,ioos:station:DISL:BSCA:1,2014-06-01T17:00:00Z,30.3288,-87.8293,0.0,7.1,138.5,-9999.0,'1111122,1111122,1111122' 
DISL,ioos:station:DISL:BSCA:1,2014-06-01T17:30:00Z,30.3288,-87.8293,0.0,6.91,138.0,-9999.0,'1111122,1111122,1111122' 
DISL,ioos:station:DISL:BSCA:1,2014-06-01T18:00:00Z,30.3288,-87.8293,0.0,7.17,139.0,-9999.0,'1111122,1111122,1111122' 
DISL,ioos:station:DISL:BSCA:1,2014-06-01T18:30:00Z,30.3288,-87.8293,0.0,6.57,130.5,-9999.0,'1111122,1111122,1111122' 
DISL,ioos:station:DISL:BSCA:1,2014-06-01T19:00:00Z,30.3288,-87.8293,0.0,7.13,137.5,-9999.0,'1111122,1111122,1111122' 
DISL,ioos:station:DISL:BSCA:1,2014-06-01T19:30:00Z,30.3288,-87.8293,0.0,7.66,133.7,-9999.0,'1111122,1111122,1111122' 
DISL,ioos:station:DISL:BSCA:1,2014-06-01T20:00:00Z,30.3288,-87.8293,0.0,7.35,139.4,-9999.0,'1111122,1111122,1111122' 
DISL,ioos:station:DISL:BSCA:1,2014-06-01T20:30:00Z,30.3288,-87.8293,0.0,8.24,136.7,-9999.0,'1111122,1111122,1111122' 
DISL,ioos:station:DISL:BSCA:1,2014-06-01T21:00:00Z,30.3288,-87.8293,0.0,7.24,143.1,-9999.0,'1111122,1111122,1111122' 
DISL,ioos:station:DISL:BSCA:1,2014-06-01T21:30:00Z,30.3288,-87.8293,0.0,7.6,140.6,-9999.0,'1111122,1111122,1111122' 
DISL,ioos:station:DISL:BSCA:1,2014-06-01T22:00:00Z,30.3288,-87.8293,0.0,7.87,139.1,-9999.0,'1111122,1111122,1111122' 
DISL,ioos:station:DISL:BSCA:1,2014-06-01T22:30:00Z,30.3288,-87.8293,0.0,7.56,140.3,-9999.0,'1111122,1111122,1111122' 
DISL,ioos:station:DISL:BSCA:1,2014-06-01T23:00:00Z,30.3288,-87.8293,0.0,7.39,134.9,-9999.0,'1111122,1111122,1111122' 
DISL,ioos:station:DISL:BSCA:1,2014-06-01T23:30:00Z,30.3288,-87.8293,0.0,6.86,131.3,-9999.0,'1111122,1111122,1111122' 
DISL,ioos:station:DISL:BSCA:1,2014-06-02T00:00:00Z,30.3288,-87.8293,0.0,7.97,136.0,-9999.0,'1111122,1111122,1111122' 
DISL,ioos:station:DISL:BSCA:1,2014-06-02T00:30:00Z,30.3288,-87.8293,0.0,7.19,135.2,-9999.0,'1111122,1111122,1111122' 
DISL,ioos:station:DISL:BSCA:1,2014-06-02T01:00:00Z,30.3288,-87.8293,0.0,6.4,131.2,-9999.0,'1111122,1111122,1111122' 
DISL,ioos:station:DISL:BSCA:1,2014-06-02T01:30:00Z,30.3288,-87.8293,0.0,6.53,135.5,-9999.0,'1111122,1111122,1111122' 
DISL,ioos:station:DISL:BSCA:1,2014-06-02T02:00:00Z,30.3288,-87.8293,0.0,4.48,116.5,-9999.0,'1111122,1111122,1111122' 
DISL,ioos:station:DISL:BSCA:1,2014-06-02T02:30:00Z,30.3288,-87.8293,0.0,6.03,129.9,-9999.0,'1111122,1111122,1111122' 
DISL,ioos:station:DISL:BSCA:1,2014-06-02T03:00:00Z,30.3288,-87.8293,0.0,5.46,127.8,-9999.0,'1111122,1111122,1111122' 
DISL,ioos:station:DISL:BSCA:1,2014-06-02T03:30:00Z,30.3288,-87.8293,0.0,4.76,122.7,-9999.0,'1111122,1111122,1111122' 
DISL,ioos:station:DISL:BSCA:1,2014-06-02T04:00:00Z,30.3288,-87.8293,0.0,4.06,103.9,-9999.0,'1111122,1111122,1111122' 
DISL,ioos:station:DISL:BSCA:1,2014-06-02T04:30:00Z,30.3288,-87.8293,0.0,4.43,112.7,-9999.0,'1111122,1111122,1111122' 
DISL,ioos:station:DISL:BSCA:1,2014-06-02T05:00:00Z,30.3288,-87.8293,0.0,4.76,112.3,-9999.0,'1111122,1111122,1111122' 
DISL,ioos:station:DISL:BSCA:1,2014-06-02T05:30:00Z,30.3288,-87.8293,0.0,4.97,104.7,-9999.0,'1111122,1111122,1111122' 
DISL,ioos:station:DISL:BSCA:1,2014-06-02T06:00:00Z,30.3288,-87.8293,0.0,4.44,98.1,-9999.0,'1111122,1111122,1111122' 
DISL,ioos:station:DISL:BSCA:1,2014-06-02T06:30:00Z,30.3288,-87.8293,0.0,5.06,109.2,-9999.0,'1111122,1111122,1111122' 
DISL,ioos:station:DISL:BSCA:1,2014-06-02T07:00:00Z,30.3288,-87.8293,0.0,5.53,111.7,-9999.0,'1111122,1111122,1111122' 
DISL,ioos:station:DISL:BSCA:1,2014-06-02T07:30:00Z,30.3288,-87.8293,0.0,6.39,107.3,-9999.0,'1111122,1111122,1111122' 
DISL,ioos:station:DISL:BSCA:1,2014-06-02T08:00:00Z,30.3288,-87.8293,0.0,6.01,108.4,-9999.0,'1111122,1111122,1111122' 
DISL,ioos:station:DISL:BSCA:1,2014-06-02T08:30:00Z,30.3288,-87.8293,0.0,5.24,94.5,-9999.0,'1111122,1111122,1111122' 
DISL,ioos:station:DISL:BSCA:1,2014-06-02T09:00:00Z,30.3288,-87.8293,0.0,5.89,110.7,-9999.0,'1111122,1111122,1111122' 
DISL,ioos:station:DISL:BSCA:1,2014-06-02T09:30:00Z,30.3288,-87.8293,0.0,5.15,92.9,-9999.0,'1111122,1111122,1111122' 
DISL,ioos:station:DISL:BSCA:1,2014-06-02T10:00:00Z,30.3288,-87.8293,0.0,5.61,81.2,-9999.0,'1111122,1111122,1111122' 
DISL,ioos:station:DISL:BSCA:1,2014-06-02T10:30:00Z,30.3288,-87.8293,0.0,6.24,83.2,-9999.0,'1111122,1111122,1111122' 
DISL,ioos:station:DISL:BSCA:1,2014-06-02T11:00:00Z,30.3288,-87.8293,0.0,6.21,77.21,-9999.0,'1111122,1111122,1111122' 
DISL,ioos:station:DISL:BSCA:1,2014-06-02T11:30:00Z,30.3288,-87.8293,0.0,5.37,73.19,-9999.0,'1111122,1111122,1111122' 
DISL,ioos:station:DISL:BSCA:1,2014-06-02T12:00:00Z,30.3288,-87.8293,0.0,6.76,76.27,-9999.0,'1111122,1111122,1111122' 
DISL,ioos:station:DISL:BSCA:1,2014-06-02T12:30:00Z,30.3288,-87.8293,0.0,6.75,78.28,-9999.0,'1111122,1111122,1111122' 
DISL,ioos:station:DISL:BSCA:1,2014-06-02T13:00:00Z,30.3288,-87.8293,0.0,6.17,84.0,-9999.0,'1111122,1111122,1111122' 
DISL,ioos:station:DISL:BSCA:1,2014-06-02T13:30:00Z,30.3288,-87.8293,0.0,6.82,91.4,-9999.0,'1111122,1111122,1111122' 
DISL,ioos:station:DISL:BSCA:1,2014-06-02T14:00:00Z,30.3288,-87.8293,0.0,6.99,93.6,-9999.0,'1111122,1111122,1111122' 
DISL,ioos:station:DISL:BSCA:1,2014-06-02T14:30:00Z,30.3288,-87.8293,0.0,6.67,95.5,-9999.0,'1111122,1111122,1111122' 
DISL,ioos:station:DISL:BSCA:1,2014-06-02T15:00:00Z,30.3288,-87.8293,0.0,7.2,97.1,-9999.0,'1111122,1111122,1111122' 
DISL,ioos:station:DISL:BSCA:1,2014-06-02T15:30:00Z,30.3288,-87.8293,0.0,6.99,88.3,-9999.0,'1111122,1111122,1111122' 
DISL,ioos:station:DISL:BSCA:1,2014-06-02T16:00:00Z,30.3288,-87.8293,0.0,6.87,100.8,-9999.0,'1111122,1111122,1111122' 
DISL,ioos:station:DISL:BSCA:1,2014-06-02T16:30:00Z,30.3288,-87.8293,0.0,6.41,105.1,-9999.0,'1111122,1111122,1111122' 
DISL,ioos:station:DISL:BSCA:1,2014-06-02T17:00:00Z,30.3288,-87.8293,0.0,7.42,102.5,-9999.0,'1111122,1111122,1111122' 
DISL,ioos:station:DISL:BSCA:1,2014-06-02T17:30:00Z,30.3288,-87.8293,0.0,7.33,101.4,-9999.0,'1111122,1111122,1111122' 
DISL,ioos:station:DISL:BSCA:1,2014-06-02T18:00:00Z,30.3288,-87.8293,0.0,6.87,98.1,-9999.0,'1111122,1111122,1111122' 
DISL,ioos:station:DISL:BSCA:1,2014-06-02T18:30:00Z,30.3288,-87.8293,0.0,7.09,113.9,-9999.0,'1111122,1111122,1111122' 
DISL,ioos:station:DISL:BSCA:1,2014-06-02T19:00:00Z,30.3288,-87.8293,0.0,7.58,118.0,-9999.0,'1111122,1111122,1111122' 
DISL,ioos:station:DISL:BSCA:1,2014-06-02T19:30:00Z,30.3288,-87.8293,0.0,5.16,104.8,-9999.0,'1111122,1111122,1111122' 
DISL,ioos:station:DISL:BSCA:1,2014-06-02T20:00:00Z,30.3288,-87.8293,0.0,7.23,128.2,-9999.0,'1111122,1111122,1111122' 
DISL,ioos:station:DISL:BSCA:1,2014-06-02T20:30:00Z,30.3288,-87.8293,0.0,4.95,116.6,-9999.0,'1111122,1111122,1111122' 
DISL,ioos:station:DISL:BSCA:1,2014-06-02T21:00:00Z,30.3288,-87.8293,0.0,8.07,141.2,-9999.0,'1111122,1111122,1111122' 
DISL,ioos:station:DISL:BSCA:1,2014-06-02T21:30:00Z,30.3288,-87.8293,0.0,6.55,119.2,-9999.0,'1111122,1111122,1111122' 
DISL,ioos:station:DISL:BSCA:1,2014-06-02T22:00:00Z,30.3288,-87.8293,0.0,2.78,84.1,-9999.0,'1111122,1111122,1111122' 
DISL,ioos:station:DISL:BSCA:1,2014-06-02T22:30:00Z,30.3288,-87.8293,0.0,2.6,82.6,-9999.0,'1111122,1111122,1111122' 
DISL,ioos:station:DISL:BSCA:1,2014-06-02T23:00:00Z,30.3288,-87.8293,0.0,4.51,140.0,-9999.0,'1111122,1111122,1111122' 
DISL,ioos:station:DISL:BSCA:1,2014-06-02T23:30:00Z,30.3288,-87.8293,0.0,7.46,131.0,-9999.0,'1111122,1111122,1111122' 
DISL,ioos:station:DISL:BSCA:1,2014-06-03T00:00:00Z,30.3288,-87.8293,0.0,5.66,143.8,-9999.0,'1111122,1111122,1111122' 
DISL,ioos:station:DISL:BSCA:1,2014-06-03T00:30:00Z,30.3288,-87.8293,0.0,5.5,141.8,-9999.0,'1111122,1111122,1111122' 
DISL,ioos:station:DISL:BSCA:1,2014-06-03T01:00:00Z,30.3288,-87.8293,0.0,4.37,124.4,-9999.0,'1111122,1111122,1111122' 
DISL,ioos:station:DISL:BSCA:1,2014-06-03T01:30:00Z,30.3288,-87.8293,0.0,5.35,132.0,-9999.0,'1111122,1111122,1111122' 
DISL,ioos:station:DISL:BSCA:1,2014-06-03T02:00:00Z,30.3288,-87.8293,0.0,4.88,154.5,-9999.0,'1111122,1111122,1111122' 
DISL,ioos:station:DISL:BSCA:1,2014-06-03T02:30:00Z,30.3288,-87.8293,0.0,4.7,144.3,-9999.0,'1111122,1111122,1111122' 
DISL,ioos:station:DISL:BSCA:1,2014-06-03T03:00:00Z,30.3288,-87.8293,0.0,4.6,125.4,-9999.0,'1111122,1111122,1111122' 
DISL,ioos:station:DISL:BSCA:1,2014-06-03T03:30:00Z,30.3288,-87.8293,0.0,6.69,140.5,-9999.0,'1111122,1111122,1111122' 
DISL,ioos:station:DISL:BSCA:1,2014-06-03T04:00:00Z,30.3288,-87.8293,0.0,4.1,98.0,-9999.0,'1111122,1111122,1111122' 
DISL,ioos:station:DISL:BSCA:1,2014-06-03T04:30:00Z,30.3288,-87.8293,0.0,3.64,102.6,-9999.0,'1111122,1111122,1111122' 
DISL,ioos:station:DISL:BSCA:1,2014-06-03T05:00:00Z,30.3288,-87.8293,0.0,3.19,89.5,-9999.0,'1111122,1111122,1111122' 
DISL,ioos:station:DISL:BSCA:1,2014-06-03T05:30:00Z,30.3288,-87.8293,0.0,2.17,64.42,-9999.0,'1111122,1111122,1111122' 
DISL,ioos:station:DISL:BSCA:1,2014-06-03T06:00:00Z,30.3288,-87.8293,0.0,2.75,141.4,-9999.0,'1111122,1111122,1111122' 
DISL,ioos:station:DISL:BSCA:1,2014-06-03T06:30:00Z,30.3288,-87.8293,0.0,4.25,176.7,-9999.0,'1111122,1111122,1111122' 
DISL,ioos:station:DISL:BSCA:1,2014-06-03T07:00:00Z,30.3288,-87.8293,0.0,5.11,194.8,-9999.0,'1111122,1111122,1111122' 
DISL,ioos:station:DISL:BSCA:1,2014-06-03T07:30:00Z,30.3288,-87.8293,0.0,7.31,187.0,-9999.0,'1111122,1111122,1111122' 
DISL,ioos:station:DISL:BSCA:1,2014-06-03T08:00:00Z,30.3288,-87.8293,0.0,6.0,166.5,-9999.0,'1111122,1111122,1111122' 
DISL,ioos:station:DISL:BSCA:1,2014-06-03T08:30:00Z,30.3288,-87.8293,0.0,4.39,144.1,-9999.0,'1111122,1111122,1111122' 
DISL,ioos:station:DISL:BSCA:1,2014-06-03T09:00:00Z,30.3288,-87.8293,0.0,3.15,144.1,-9999.0,'1111122,1111122,1111122' 
DISL,ioos:station:DISL:BSCA:1,2014-06-03T09:30:00Z,30.3288,-87.8293,0.0,4.81,132.2,-9999.0,'1111122,1111122,1111122' 
DISL,ioos:station:DISL:BSCA:1,2014-06-03T10:00:00Z,30.3288,-87.8293,0.0,8.35,161.5,-9999.0,'1111122,1111122,1111122' 
DISL,ioos:station:DISL:BSCA:1,2014-06-03T10:30:00Z,30.3288,-87.8293,0.0,4.95,138.1,-9999.0,'1111122,1111122,1111122' 
DISL,ioos:station:DISL:BSCA:1,2014-06-03T11:00:00Z,30.3288,-87.8293,0.0,3.03,76.08,-9999.0,'1111122,1111122,1111122' 
DISL,ioos:station:DISL:BSCA:1,2014-06-03T11:30:00Z,30.3288,-87.8293,0.0,3.67,83.2,-9999.0,'1111122,1111122,1111122' 
DISL,ioos:station:DISL:BSCA:1,2014-06-03T12:00:00Z,30.3288,-87.8293,0.0,4.0,66.27,-9999.0,'1111122,1111122,1111122' 
DISL,ioos:station:DISL:BSCA:1,2014-06-03T12:30:00Z,30.3288,-87.8293,0.0,3.33,72.83,-9999.0,'1111122,1111122,1111122' 
DISL,ioos:station:DISL:BSCA:1,2014-06-03T13:00:00Z,30.3288,-87.8293,0.0,2.59,88.4,-9999.0,'1111122,1111122,1111122' 
DISL,ioos:station:DISL:BSCA:1,2014-06-03T13:30:00Z,30.3288,-87.8293,0.0,2.77,114.7,-9999.0,'1111122,1111122,1111122' 
DISL,ioos:station:DISL:BSCA:1,2014-06-03T14:00:00Z,30.3288,-87.8293,0.0,2.63,52.05,-9999.0,'1111122,1111122,1111122' 
DISL,ioos:station:DISL:BSCA:1,2014-06-03T14:30:00Z,30.3288,-87.8293,0.0,2.21,62.53,-9999.0,'1111122,1111122,1111122' 
DISL,ioos:station:DISL:BSCA:1,2014-06-03T15:00:00Z,30.3288,-87.8293,0.0,2.55,77.03,-9999.0,'1111122,1111122,1111122' 
DISL,ioos:station:DISL:BSCA:1,2014-06-03T15:30:00Z,30.3288,-87.8293,0.0,3.17,73.67,-9999.0,'1111122,1111122,1111122' 
DISL,ioos:station:DISL:BSCA:1,2014-06-03T16:00:00Z,30.3288,-87.8293,0.0,3.26,103.3,-9999.0,'1111122,1111122,1111122' 
DISL,ioos:station:DISL:BSCA:1,2014-06-03T16:30:00Z,30.3288,-87.8293,0.0,3.85,101.8,-9999.0,'1111122,1111122,1111122' 
DISL,ioos:station:DISL:BSCA:1,2014-06-03T17:00:00Z,30.3288,-87.8293,0.0,2.41,97.6,-9999.0,'1111122,1111122,1111122' 
DISL,ioos:station:DISL:BSCA:1,2014-06-03T17:30:00Z,30.3288,-87.8293,0.0,2.1,73.46,-9999.0,'1111122,1111122,1111122' 
DISL,ioos:station:DISL:BSCA:1,2014-06-03T18:00:00Z,30.3288,-87.8293,0.0,2.56,62.39,-9999.0,'1111122,1111122,1111122' 
DISL,ioos:station:DISL:BSCA:1,2014-06-03T18:30:00Z,30.3288,-87.8293,0.0,4.05,128.3,-9999.0,'1111122,1111122,1111122' 
DISL,ioos:station:DISL:BSCA:1,2014-06-03T19:00:00Z,30.3288,-87.8293,0.0,2.63,112.1,-9999.0,'1111122,1111122,1111122' 
DISL,ioos:station:DISL:BSCA:1,2014-06-03T19:30:00Z,30.3288,-87.8293,0.0,5.01,138.4,-9999.0,'1111122,1111122,1111122' 
DISL,ioos:station:DISL:BSCA:1,2014-06-03T20:00:00Z,30.3288,-87.8293,0.0,5.47,132.7,-9999.0,'1111122,1111122,1111122' 
DISL,ioos:station:DISL:BSCA:1,2014-06-03T20:30:00Z,30.3288,-87.8293,0.0,6.8,141.6,-9999.0,'1111122,1111122,1111122' 
DISL,ioos:station:DISL:BSCA:1,2014-06-03T21:00:00Z,30.3288,-87.8293,0.0,6.27,148.2,-9999.0,'1111122,1111122,1111122' 
DISL,ioos:station:DISL:BSCA:1,2014-06-03T21:30:00Z,30.3288,-87.8293,0.0,4.48,149.1,-9999.0,'1111122,1111122,1111122' 
DISL,ioos:station:DISL:BSCA:1,2014-06-03T22:00:00Z,30.3288,-87.8293,0.0,5.24,143.2,-9999.0,'1111122,1111122,1111122' 
DISL,ioos:station:DISL:BSCA:1,2014-06-03T22:30:00Z,30.3288,-87.8293,0.0,4.72,140.8,-9999.0,'1111122,1111122,1111122' 
DISL,ioos:station:DISL:BSCA:1,2014-06-03T23:00:00Z,30.3288,-87.8293,0.0,4.97,148.4,-9999.0,'1111122,1111122,1111122' 
DISL,ioos:station:DISL:BSCA:1,2014-06-03T23:30:00Z,30.3288,-87.8293,0.0,5.1,148.5,-9999.0,'1111122,1111122,1111122' 
DISL,ioos:station:DISL:BSCA:1,2014-06-04T00:00:00Z,30.3288,-87.8293,0.0,4.65,144.3,-9999.0,'1111122,1111122,1111122' 
DISL,ioos:station:DISL:BSCA:1,2014-06-04T00:30:00Z,30.3288,-87.8293,0.0,4.47,145.7,-9999.0,'1111122,1111122,1111122' 
DISL,ioos:station:DISL:BSCA:1,2014-06-04T01:00:00Z,30.3288,-87.8293,0.0,4.21,145.4,-9999.0,'1111122,1111122,1111122' 
DISL,ioos:station:DISL:BSCA:1,2014-06-04T01:30:00Z,30.3288,-87.8293,0.0,2.28,99.9,-9999.0,'1111122,1111122,1111122' 
DISL,ioos:station:DISL:BSCA:1,2014-06-04T02:00:00Z,30.3288,-87.8293,0.0,2.16,107.5,-9999.0,'1111122,1111122,1111122' 
DISL,ioos:station:DISL:BSCA:1,2014-06-04T02:30:00Z,30.3288,-87.8293,0.0,2.15,95.4,-9999.0,'1111122,1111122,1111122' 
DISL,ioos:station:DISL:BSCA:1,2014-06-04T03:00:00Z,30.3288,-87.8293,0.0,1.43,69.6,-9999.0,'1111122,1111122,1111122' 
DISL,ioos:station:DISL:BSCA:1,2014-06-04T03:30:00Z,30.3288,-87.8293,0.0,1.84,77.93,-9999.0,'1111122,1111122,1111122' 
DISL,ioos:station:DISL:BSCA:1,2014-06-04T04:00:00Z,30.3288,-87.8293,0.0,2.25,119.3,-9999.0,'1111122,1111122,1111122' 
DISL,ioos:station:DISL:BSCA:1,2014-06-04T04:30:00Z,30.3288,-87.8293,0.0,1.67,89.5,-9999.0,'1111122,1111122,1111122' 
DISL,ioos:station:DISL:BSCA:1,2014-06-04T05:00:00Z,30.3288,-87.8293,0.0,1.68,103.1,-9999.0,'1111122,1111122,1111122' 
DISL,ioos:station:DISL:BSCA:1,2014-06-04T05:30:00Z,30.3288,-87.8293,0.0,1.61,109.5,-9999.0,'1111122,1111122,1111122' 
DISL,ioos:station:DISL:BSCA:1,2014-06-04T06:00:00Z,30.3288,-87.8293,0.0,1.7,83.9,-9999.0,'1111122,1111122,1111122' 
DISL,ioos:station:DISL:BSCA:1,2014-06-04T06:30:00Z,30.3288,-87.8293,0.0,1.73,64.26,-9999.0,'1111122,1111122,1111122' 
DISL,ioos:station:DISL:BSCA:1,2014-06-04T07:00:00Z,30.3288,-87.8293,0.0,2.4,50.04,-9999.0,'1111122,1111122,1111122' 
DISL,ioos:station:DISL:BSCA:1,2014-06-04T07:30:00Z,30.3288,-87.8293,0.0,2.96,56.8,-9999.0,'1111122,1111122,1111122' 
DISL,ioos:station:DISL:BSCA:1,2014-06-04T08:00:00Z,30.3288,-87.8293,0.0,2.86,61.06,-9999.0,'1111122,1111122,1111122' 
DISL,ioos:station:DISL:BSCA:1,2014-06-04T08:30:00Z,30.3288,-87.8293,0.0,2.98,82.0,-9999.0,'1111122,1111122,1111122' 
DISL,ioos:station:DISL:BSCA:1,2014-06-04T09:00:00Z,30.3288,-87.8293,0.0,2.89,89.1,-9999.0,'1111122,1111122,1111122' 
DISL,ioos:station:DISL:BSCA:1,2014-06-04T09:30:00Z,30.3288,-87.8293,0.0,2.53,71.84,-9999.0,'1111122,1111122,1111122' 
DISL,ioos:station:DISL:BSCA:1,2014-06-04T10:00:00Z,30.3288,-87.8293,0.0,3.06,83.5,-9999.0,'1111122,1111122,1111122' 
DISL,ioos:station:DISL:BSCA:1,2014-06-04T10:30:00Z,30.3288,-87.8293,0.0,3.06,64.2,-9999.0,'1111122,1111122,1111122' 
DISL,ioos:station:DISL:BSCA:1,2014-06-04T11:00:00Z,30.3288,-87.8293,0.0,3.29,57.34,-9999.0,'1111122,1111122,1111122' 
DISL,ioos:station:DISL:BSCA:1,2014-06-04T11:30:00Z,30.3288,-87.8293,0.0,2.98,67.99,-9999.0,'1111122,1111122,1111122' 
DISL,ioos:station:DISL:BSCA:1,2014-06-04T12:00:00Z,30.3288,-87.8293,0.0,2.59,62.07,-9999.0,'1111122,1111122,1111122' 
DISL,ioos:station:DISL:BSCA:1,2014-06-04T12:30:00Z,30.3288,-87.8293,0.0,2.52,71.2,-9999.0,'1111122,1111122,1111122' 
DISL,ioos:station:DISL:BSCA:1,2014-06-04T13:00:00Z,30.3288,-87.8293,0.0,2.5,62.0,-9999.0,'1111122,1111122,1111122' 
DISL,ioos:station:DISL:BSCA:1,2014-06-04T13:30:00Z,30.3288,-87.8293,0.0,2.44,95.6,-9999.0,'1111122,1111122,1111122' 
DISL,ioos:station:DISL:BSCA:1,2014-06-04T14:00:00Z,30.3288,-87.8293,0.0,2.58,133.6,-9999.0,'1111122,1111122,1111122' 
DISL,ioos:station:DISL:BSCA:1,2014-06-04T14:30:00Z,30.3288,-87.8293,0.0,3.25,154.8,-9999.0,'1111122,1111122,1111122' 
DISL,ioos:station:DISL:BSCA:1,2014-06-04T15:00:00Z,30.3288,-87.8293,0.0,4.48,167.2,-9999.0,'1111122,1111122,1111122' 
DISL,ioos:station:DISL:BSCA:1,2014-06-04T15:30:00Z,30.3288,-87.8293,0.0,3.48,164.8,-9999.0,'1111122,1111122,1111122' 
DISL,ioos:station:DISL:BSCA:1,2014-06-04T16:00:00Z,30.3288,-87.8293,0.0,2.74,165.6,-9999.0,'1111122,1111122,1111122' 
DISL,ioos:station:DISL:BSCA:1,2014-06-04T16:30:00Z,30.3288,-87.8293,0.0,3.12,173.2,-9999.0,'1111122,1111122,1111122' 
DISL,ioos:station:DISL:BSCA:1,2014-06-04T17:00:00Z,30.3288,-87.8293,0.0,4.11,174.0,-9999.0,'1111122,1111122,1111122' 
DISL,ioos:station:DISL:BSCA:1,2014-06-04T17:30:00Z,30.3288,-87.8293,0.0,4.93,165.2,-9999.0,'1111122,1111122,1111122' 
DISL,ioos:station:DISL:BSCA:1,2014-06-04T18:00:00Z,30.3288,-87.8293,0.0,5.55,168.0,-9999.0,'1111122,1111122,1111122' 
DISL,ioos:station:DISL:BSCA:1,2014-06-04T18:30:00Z,30.3288,-87.8293,0.0,5.55,158.1,-9999.0,'1111122,1111122,1111122' 
DISL,ioos:station:DISL:BSCA:1,2014-06-04T19:00:00Z,30.3288,-87.8293,0.0,5.63,171.4,-9999.0,'1111122,1111122,1111122' 
DISL,ioos:station:DISL:BSCA:1,2014-06-04T19:30:00Z,30.3288,-87.8293,0.0,6.23,169.3,-9999.0,'1111122,1111122,1111122' 
DISL,ioos:station:DISL:BSCA:1,2014-06-04T20:00:00Z,30.3288,-87.8293,0.0,5.62,160.3,-9999.0,'1111122,1111122,1111122' 
DISL,ioos:station:DISL:BSCA:1,2014-06-04T20:30:00Z,30.3288,-87.8293,0.0,5.28,163.9,-9999.0,'1111122,1111122,1111122' 
DISL,ioos:station:DISL:BSCA:1,2014-06-04T21:00:00Z,30.3288,-87.8293,0.0,4.34,165.4,-9999.0,'1111122,1111122,1111122' 
DISL,ioos:station:DISL:BSCA:1,2014-06-04T21:30:00Z,30.3288,-87.8293,0.0,4.25,165.5,-9999.0,'1111122,1111122,1111122' 
DISL,ioos:station:DISL:BSCA:1,2014-06-04T22:00:00Z,30.3288,-87.8293,0.0,5.29,167.2,-9999.0,'1111122,1111122,1111122' 
DISL,ioos:station:DISL:BSCA:1,2014-06-04T22:30:00Z,30.3288,-87.8293,0.0,5.07,171.1,-9999.0,'1111122,1111122,1111122' 
DISL,ioos:station:DISL:BSCA:1,2014-06-04T23:00:00Z,30.3288,-87.8293,0.0,4.85,178.3,-9999.0,'1111122,1111122,1111122' 
DISL,ioos:station:DISL:BSCA:1,2014-06-04T23:30:00Z,30.3288,-87.8293,0.0,4.61,182.1,-9999.0,'1111122,1111122,1111122' 
DISL,ioos:station:DISL:BSCA:1,2014-06-05T00:00:00Z,30.3288,-87.8293,0.0,4.82,184.1,-9999.0,'1111122,1111122,1111122' 
DISL,ioos:station:DISL:BSCA:1,2014-06-05T00:30:00Z,30.3288,-87.8293,0.0,5.41,192.3,-9999.0,'1111122,1111122,1111122' 
DISL,ioos:station:DISL:BSCA:1,2014-06-05T01:00:00Z,30.3288,-87.8293,0.0,4.96,192.1,-9999.0,'1111122,1111122,1111122' 
DISL,ioos:station:DISL:BSCA:1,2014-06-05T01:30:00Z,30.3288,-87.8293,0.0,5.12,197.6,-9999.0,'1111122,1111122,1111122' 
DISL,ioos:station:DISL:BSCA:1,2014-06-05T02:00:00Z,30.3288,-87.8293,0.0,4.94,201.3,-9999.0,'1111122,1111122,1111122' 
DISL,ioos:station:DISL:BSCA:1,2014-06-05T02:30:00Z,30.3288,-87.8293,0.0,4.55,201.0,-9999.0,'1111122,1111122,1111122' 
DISL,ioos:station:DISL:BSCA:1,2014-06-05T03:00:00Z,30.3288,-87.8293,0.0,4.23,194.7,-9999.0,'1111122,1111122,1111122' 
DISL,ioos:station:DISL:BSCA:1,2014-06-05T03:30:00Z,30.3288,-87.8293,0.0,4.15,201.5,-9999.0,'1111122,1111122,1111122' 
DISL,ioos:station:DISL:BSCA:1,2014-06-05T04:00:00Z,30.3288,-87.8293,0.0,4.82,195.3,-9999.0,'1111122,1111122,1111122' 
DISL,ioos:station:DISL:BSCA:1,2014-06-05T04:30:00Z,30.3288,-87.8293,0.0,5.08,205.3,-9999.0,'1111122,1111122,1111122' 
DISL,ioos:station:DISL:BSCA:1,2014-06-05T05:00:00Z,30.3288,-87.8293,0.0,3.95,209.0,-9999.0,'1111122,1111122,1111122' 